Hourly Data Report for September 10, 2017

All times are specified in Local Standard Time (LST). Add 1 hour to adjust for Daylight Saving Time where and when it is observed.

BUCTOUCHE CDA CS
NEW BRUNSWICK

46°25'49.006" N
64°46'05.009" W
35.90 m
8100593
71666
ABT

Download Data

Hourly Data (September 2017)
Hourly Data Report for September 10, 2017
Temp Definition
°C
Dew Point Temp Definition
°C
Rel Hum Definition
%
Wind Dir Definition
10's deg

Wind Spd Definition
km/h
Visibility Definition
km
Stn Press Definition
kPa
Hmdx Definition


Wind Chill Definition


Weather Definition


TIME
00:00 13.7 11.7 88 35 8   101.87     LegendNANA
01:00 13.7 11.6 87 2 6   101.89     LegendNANA
02:00 13.7 11.4 86 36 8   101.85     LegendNANA
03:00 14.0 10.5 80 1 13   101.84     LegendNANA
04:00 12.9 9.9 82 1 9   101.86     LegendNANA
05:00 11.6 9.7 88 36 6   101.92     LegendNANA
06:00 11.5 9.8 89 35 6   101.97     LegendNANA
07:00 11.7 10.1 90 35 7   101.98     LegendNANA
08:00 12.9 10.9 88 33 9   101.97     LegendNANA
09:00 14.9 12.4 85 31 9   101.97     LegendNANA
10:00 15.0 10.5 75 36 11   101.97     LegendNANA
11:00 17.0 10.6 66 36 12   101.93     LegendNANA
12:00 16.1 10.2 68 3 13   101.88     LegendNANA
13:00 17.4 10.4 63 3 12   101.83     LegendNANA
14:00 17.6 7.0 50 3 14   101.75     LegendNANA
15:00 18.1 7.6 50 3 13   101.68     LegendNANA
16:00 16.6 8.1 57 4 12   101.64     LegendNANA
17:00 15.9 8.1 60 5 4   101.62     LegendNANA
18:00 14.8 10.8 77   0   101.60     LegendNANA
19:00 13.3 10.2 81   0   101.60     LegendNANA
20:00 12.7 9.8 83 25 4   101.62     LegendNANA
21:00 12.9 9.6 80 26 5   101.57     LegendNANA
22:00 12.5 9.7 83 24 6   101.53     LegendNANA
23:00 13.0 9.1 77 26 7   101.49     LegendNANA

Notes on Data Quality.

Legend

  • E = Estimated
  • M = Missing
  • NA = Not Available
  • ‡ = Partner data that is not subject to review by the National Climate Archives
Date modified: